Regional Weather Roundup
Issued by NWS

Home | Current Version | Previous Version | Text Only | Print | Product List | Glossary Off
Versions: 1 2 3 4 5 6 7 8 9 10 11 12 13 14 15 16 17 18 19 20 21 22 23 24 25 26 27 28 29 30 31 32 33 34 35 36 37 38 39 40 41 42 43 44 45 46 47 48 49 50

000
ASUS43 KMKX 230100
RWRWI

WISCONSIN REGIONAL WEATHER ROUNDUP
NATIONAL WEATHER SERVICE MILWAUKEE/SULLIVAN WI
800 PM CDT TUE JUL 22 2014

NOTE: "FAIR" INDICATES FEW OR NO CLOUDS BELOW 12,000 FEET WITH NO
SIGNIFICANT WEATHER AND/OR OBSTRUCTIONS TO VISIBILITY.

WIZ001-002-006>008-014>016-023>028-230200-
NORTHWEST WISCONSIN

CITY           SKY/WX    TMP DP  RH WIND       PRES   REMARKS
SUPERIOR ARPT  CLEAR     74  56  54 N7        30.09R
ASHLAND        PTCLDY    70  60  70 NE8       30.11R
HAYWARD        PTCLDY    73  57  57 N6        30.11R
SIREN          CLEAR     75  58  55 NW5       30.10R
RICE LAKE      PTCLDY    76  60  57 N5        30.11R
LADYSMITH      PTCLDY    74  60  61 N9G18     30.11R
EAU CLAIRE     NOT AVBL
MENOMONIE      CLEAR     77  61  58 NW6       30.08R
NEW RICHMOND   CLEAR     75  59  57 NW7       30.11R
OSCEOLA        CLEAR     77  59  54 NW6       30.13R
$$

WIZ003>005-009-010-017-018-230200-
NORTH CENTRAL WISCONSIN

CITY           SKY/WX    TMP DP  RH WIND       PRES   REMARKS
WOODRUFF       CLEAR     69  60  72 N9        30.10R
RHINELANDER    CLOUDY    66  59  78 N5        30.11R
EAGLE RIVER    CLOUDY    64  57  80 N6        30.10R
LAND O LAKES   CLOUDY    64  59  86 N9        30.11R
PHILLIPS       CLEAR     69  59  69 N7        30.10R
TOMAHAWK       CLEAR     67  58  73 CALM      30.11R
MEDFORD        CLEAR     72  60  66 N10       30.08R
MERRILL        PTCLDY    71  61  71 N13       30.08R
$$

WIZ029-030-035-036-043>047-230200-
CENTRAL WISCONSIN

CITY           SKY/WX    TMP DP  RH WIND       PRES   REMARKS
WAUSAU         CLEAR     72  60  66 N17G25    30.05R
MOSINEE        MOCLDY    73  63  68 N16       30.07R
MARSHFIELD     MOCLDY    77  63  61 N17G25    30.06R
STEVENS POINT  PTCLDY    76  62  61 NW10      30.03R
WAUPACA        MOCLDY    81  62  52 NW12G21   30.00R HX  82
WAUTOMA        NOT AVBL
WISC RAPIDS    CLEAR     78  63  59 N13       30.04R HX  80
CAMP DOUGLAS   NOT AVBL
$$

WIZ011>013-019>022-031-037>040-048>050-230200-
NORTHEAST WISCONSIN

CITY           SKY/WX    TMP DP  RH WIND       PRES   REMARKS
ANTIGO         CLOUDY    68  62  80 N21       30.08R
STURGEON BAY   MOCLDY    75  63  64 N17G26    29.96R
GREEN BAY      MOCLDY    80  64  58 NW17G26   29.96R HX  82
MANITOWOC      NOT AVBL
APPLETON       MOCLDY    81  63  54 N17G28    29.98R HX  82
CLINTONVILLE   CLOUDY    79  61  53 N14G20    30.00R HX  80
OSHKOSH        CLEAR     82  66  58 NW9       29.95R HX  84
$$

WIZ032>034-041-042-053>061-230200-
SOUTHWEST WISCONSIN

CITY           SKY/WX    TMP DP  RH WIND       PRES   REMARKS
LA CROSSE      CLEAR     81  64  56 N15       30.03R HX  82
SPARTA         CLEAR     79  62  57 NW12G21   30.05R HX  80
VIROQUA        FAIR      79  65  63 N17G23    30.05R HX  80
BOSCOBEL       CLEAR     83  67  58 VRB6      30.01R HX  85
PRAIRIE DU CHI CLEAR     83  64  51 NW8       30.00R HX  85
PLATTEVILLE    FAIR      84  71  64 NW9       30.01R HX  89
$$

WIZ056-057-062-063-064-067-068-230200-
SOUTH CENTRAL WISCONSIN

CITY           SKY/WX    TMP DP  RH WIND       PRES   REMARKS
BARABOO/DELLS  CLEAR     83  63  51 NW8       29.99R HX  84
LONE ROCK      NOT AVBL
WATERTOWN      PTCLDY    85  72  64 NW12      29.94R HX  90
MADISON        PTCLDY    84  68  58 NW8       29.97R HX  87
MIDDLETON      FAIR      85  67  54 NW8       29.99R HX  88
MONROE         PTCLDY    86  73  66 W6        29.97R HX  93
JANESVILLE     PTCLDY    88  73  62 W7        29.94R HX  96
$$

WIZ051-052-058>065-066-070>072-230200-
SOUTHEAST WISCONSIN

CITY           SKY/WX    TMP DP  RH WIND       PRES   REMARKS
MILWAUKEE      MOCLDY    86  76  71 W9        29.91S HX  96
WAUKESHA       CLOUDY    82  72  69 NW10G20   29.95R HX  87
MILWAUKEE/TIMM MOCLDY    84  73  70 SW6       29.92R HX  91
RACINE         PTCLDY    85  76  74 W5        29.94S HX  94
BURLINGTON     PTCLDY    83  76  78 W3        29.94S HX  91
KENOSHA        PTCLDY    83  77  82 SW6       29.93S HX  92
FOND DU LAC    CLEAR     83  65  54 NW16G23   29.96R HX  85
SHEBOYGAN      PTCLDY    83  67  58 NW10      29.93R HX  85
WEST BEND      CLEAR     82  68  61 NW7       29.94R HX  85
JUNEAU         PTCLDY    83  63  51 NW8G16    29.97R HX  84
$$

LSZ147-162-230200-
LAKE SUPERIOR

STATION/POSITION TIME  TEMP    WIND        PRES    WAVE
                       AIR SEA DIR/SP/G            HT/PER
                 (UTC) (F)     (DEG/KT/KT) (MB)    (FT/S)
W MID LAKE BUOY  2350   53 40   70/  4/  4 1018.2R   2/ 4
PORT WING        0000   70      30/  6/  7 1018.6R
SAXON HARBOR     0000           CALM  / 21 1019.0R
$$

LMZ867-665-643>646-230200-
LAKE MICHIGAN

STATION/POSITION TIME  TEMP    WIND        PRES    WAVE
                       AIR SEA DIR/SP/G            HT/PER
                 (UTC) (F)     (DEG/KT/KT) (MB)    (FT/S)
N MID LAKE BUOY  2350   65 60  360/  8/ 12 1012.1R   4/ 6
NORTHPORT PIER   0020   72     330/ 17/ 21 1013.9R
KEWAUNEE LAKESHO 0000          340/ 10/ 15 1013.4R
SHEBOYGAN LAKESH 0000   89     300/ 14/ 16 1012.2R
PORT WASHINGTON  0000          330/  8/ 14 1013.2
ATWATER BUOY     0000   77     230/ 10     1013.7R
MILWAUKEE LAKESH 0000   86     230/  9/ 12   N/A
S MID LAKE BUOY  2350   71 66  200/ 10/ 12 1013.2R   2/ 4
KENOSHA   LAKESH 0000   88     240/  8/ 14   N/A
$$

TC  - TEMPERATURE IN CELSIUS
VSB - VISIBILITY IN STATUTE MILES
WCI - WIND CHILL INDEX
HX  - HEAT INDEX




USA.gov is the U.S. government's official web portal to all federal, state and local government web resources and services.